JBU407 KBNA-KMDW

Flight info

Callsign JBU407
Flight time N/A
Altitude 32000
Route KRSTA4 OLSIE IIU DROSE FISSK7
Aircraft A21N/M-SDE2E3FGHIRWXY/LB1

Departure

Time 2026-05-05 14:38
Airport Nashville International Airport (KBNA)

Arrival

Time N/A
Airport Chicago Midway International Airport (KMDW)
Time Latitude Longitude Altitude Speed Heading
2026-05-05 14:15 36.13021 -86.67047 573 ft 0 kts 102°
2026-05-05 14:28 36.13022 -86.67054 572 ft 3 kts 102°
2026-05-05 14:29 36.13031 -86.67088 575 ft 6 kts 119°
2026-05-05 14:29 36.13040 -86.67106 572 ft 0 kts 164°
2026-05-05 14:29 36.13046 -86.67107 573 ft 0 kts 186°
2026-05-05 14:29 36.13041 -86.67108 575 ft 2 kts 187°
2026-05-05 14:30 36.13011 -86.67130 577 ft 7 kts 222°
2026-05-05 14:30 36.12964 -86.67185 572 ft 12 kts 224°
2026-05-05 14:30 36.12954 -86.67197 571 ft 2 kts 224°
2026-05-05 14:30 36.12940 -86.67213 572 ft 4 kts 219°
2026-05-05 14:31 36.12906 -86.67236 571 ft 7 kts 207°
2026-05-05 14:31 36.12852 -86.67274 574 ft 4 kts 217°
2026-05-05 14:31 36.12835 -86.67291 573 ft 21 kts 219°
2026-05-05 14:31 36.12732 -86.67402 575 ft 14 kts 191°
2026-05-05 14:32 36.12655 -86.67349 577 ft 13 kts 137°
2026-05-05 14:32 36.12590 -86.67261 574 ft 15 kts 130°
2026-05-05 14:32 36.12513 -86.67176 571 ft 16 kts 135°
2026-05-05 14:32 36.12433 -86.67067 571 ft 19 kts 131°
2026-05-05 14:33 36.12343 -86.66944 569 ft 21 kts 132°
2026-05-05 14:33 36.12272 -86.66799 570 ft 19 kts 107°
2026-05-05 14:33 36.12233 -86.66644 576 ft 18 kts 107°
2026-05-05 14:33 36.12225 -86.66543 581 ft 6 kts 62°
2026-05-05 14:34 36.12264 -86.66514 578 ft 7 kts 21°
2026-05-05 14:34 36.12314 -86.66491 582 ft 8 kts 21°
2026-05-05 14:34 36.12375 -86.66465 582 ft 11 kts 17°
2026-05-05 14:34 36.12458 -86.66433 577 ft 14 kts 17°
2026-05-05 14:35 36.12556 -86.66395 580 ft 15 kts 18°
2026-05-05 14:35 36.12664 -86.66352 580 ft 18 kts 18°
2026-05-05 14:35 36.12794 -86.66300 577 ft 22 kts 18°
2026-05-05 14:35 36.12947 -86.66238 576 ft 25 kts 18°
2026-05-05 14:36 36.13122 -86.66167 566 ft 28 kts 18°
2026-05-05 14:36 36.13298 -86.66097 570 ft 17 kts 17°
2026-05-05 14:36 36.13365 -86.66056 568 ft 0 kts 53°
2026-05-05 14:36 36.13369 -86.65985 564 ft 19 kts 101°
2026-05-05 14:37 36.13352 -86.65942 568 ft 3 kts 147°
2026-05-05 14:37 36.13332 -86.65943 565 ft 4 kts 194°
2026-05-05 14:37 36.13181 -86.66003 569 ft 61 kts 198°
2026-05-05 14:37 36.12471 -86.66286 583 ft 152 kts 198°
2026-05-05 14:38 36.11354 -86.66725 1159 ft 178 kts 198°
2026-05-05 14:38 36.10159 -86.67424 1655 ft 212 kts 219°
2026-05-05 14:38 36.09249 -86.69029 2379 ft 238 kts 241°
2026-05-05 14:38 36.08572 -86.70902 3132 ft 239 kts 244°
2026-05-05 14:39 36.07939 -86.72805 3879 ft 240 kts 245°
2026-05-05 14:39 36.07297 -86.74726 4614 ft 244 kts 245°
2026-05-05 14:39 36.06816 -86.76759 5368 ft 250 kts 260°
2026-05-05 14:39 36.06903 -86.78936 6129 ft 259 kts 277°
2026-05-05 14:40 36.07305 -86.81091 6855 ft 263 kts 281°
2026-05-05 14:40 36.07820 -86.83306 7572 ft 268 kts 287°
2026-05-05 14:40 36.08747 -86.85299 8299 ft 278 kts 308°
2026-05-05 14:40 36.10355 -86.86732 9072 ft 290 kts 335°
2026-05-05 14:41 36.12406 -86.87125 9721 ft 317 kts
2026-05-05 14:41 36.14684 -86.86640 10218 ft 346 kts 11°
2026-05-05 14:41 36.17106 -86.85895 10719 ft 371 kts 12°
2026-05-05 14:41 36.19677 -86.85089 11211 ft 391 kts 12°
2026-05-05 14:42 36.22330 -86.84279 11713 ft 404 kts 12°
2026-05-05 14:42 36.25089 -86.83452 12213 ft 411 kts 11°
2026-05-05 14:42 36.27882 -86.82624 12722 ft 414 kts 11°
2026-05-05 14:42 36.30690 -86.81771 13233 ft 418 kts 13°
2026-05-05 14:43 36.33409 -86.80444 13748 ft 424 kts 26°
2026-05-05 14:43 36.35797 -86.78277 14223 ft 430 kts 42°
2026-05-05 14:43 36.37875 -86.75590 14698 ft 433 kts 47°
2026-05-05 14:43 36.39893 -86.72776 15188 ft 439 kts 47°
2026-05-05 14:44 36.41929 -86.69914 15703 ft 445 kts 47°
2026-05-05 14:44 36.43988 -86.67028 16203 ft 449 kts 47°
2026-05-05 14:44 36.46070 -86.64120 16730 ft 452 kts 47°
2026-05-05 14:44 36.48168 -86.61194 17248 ft 455 kts 47°
2026-05-05 14:45 36.50281 -86.58248 17771 ft 458 kts 47°
2026-05-05 14:45 36.52411 -86.55279 18297 ft 461 kts 47°
2026-05-05 14:45 36.54555 -86.52288 18763 ft 464 kts 46°
2026-05-05 14:45 36.56793 -86.49380 19195 ft 466 kts 40°
2026-05-05 14:46 36.59376 -86.46973 19672 ft 465 kts 27°
2026-05-05 14:46 36.62269 -86.45191 20154 ft 464 kts 20°
2026-05-05 14:46 36.65257 -86.43637 20646 ft 466 kts 18°
2026-05-05 14:46 36.68268 -86.42114 21149 ft 469 kts 17°
2026-05-05 14:47 36.71304 -86.40577 21659 ft 472 kts 18°
2026-05-05 14:47 36.74310 -86.38872 22180 ft 477 kts 22°
2026-05-05 14:47 36.77277 -86.36980 22709 ft 481 kts 23°
2026-05-05 14:47 36.80253 -86.35044 23244 ft 484 kts 23°
2026-05-05 14:48 36.83210 -86.33118 23739 ft 487 kts 23°
2026-05-05 14:48 36.86221 -86.31159 24195 ft 489 kts 22°
2026-05-05 14:48 36.89248 -86.29192 24662 ft 491 kts 22°
2026-05-05 14:48 36.92285 -86.27219 25124 ft 493 kts 22°
2026-05-05 14:49 36.95328 -86.25242 25637 ft 494 kts 22°
2026-05-05 14:49 36.98385 -86.23255 26126 ft 496 kts 22°
2026-05-05 14:49 37.01448 -86.21262 26633 ft 497 kts 22°
2026-05-05 14:49 37.04516 -86.19264 27129 ft 497 kts 21°
2026-05-05 14:50 37.07584 -86.17265 27645 ft 497 kts 22°
2026-05-05 14:50 37.10652 -86.15264 28164 ft 497 kts 21°
2026-05-05 14:50 37.13713 -86.13264 28696 ft 496 kts 21°
2026-05-05 14:50 37.16767 -86.11269 29236 ft 495 kts 21°
2026-05-05 14:51 37.19811 -86.09278 29802 ft 494 kts 20°
2026-05-05 14:51 37.22855 -86.07293 30305 ft 492 kts 19°
2026-05-05 14:51 37.25925 -86.05424 30792 ft 488 kts 17°
2026-05-05 14:51 37.28999 -86.03670 31294 ft 483 kts 15°
2026-05-05 14:52 37.32058 -86.01978 31785 ft 479 kts 13°
2026-05-05 14:52 37.35097 -86.00311 31933 ft 475 kts 13°
2026-05-05 14:52 37.41166 -85.96976 31955 ft 477 kts 13°
2026-05-05 14:53 37.47252 -85.93588 31921 ft 479 kts 13°
2026-05-05 14:53 37.53341 -85.90164 31924 ft 480 kts 13°
2026-05-05 14:54 37.59438 -85.86721 31925 ft 480 kts 13°
2026-05-05 14:54 37.65531 -85.83275 31935 ft 480 kts 13°
2026-05-05 14:55 37.71638 -85.79820 31925 ft 481 kts 13°
2026-05-05 14:55 37.77745 -85.76356 31918 ft 482 kts 13°
2026-05-05 14:56 37.83863 -85.72881 31917 ft 482 kts 13°
2026-05-05 14:56 37.89930 -85.69426 31960 ft 477 kts 14°
2026-05-05 14:57 37.92815 -85.67761 32072 ft 426 kts 12°
2026-05-05 14:57 37.95359 -85.66244 31947 ft 388 kts 12°
2026-05-05 14:57 37.97556 -85.64914 33417 ft 304 kts
2026-05-05 14:57 37.99151 -85.63780 34934 ft 230 kts
2026-05-05 14:58 38.00459 -85.62739 34466 ft 230 kts
2026-05-05 14:58 38.02026 -85.61537 32256 ft 300 kts 13°
2026-05-05 14:58 38.03972 -85.60193 31183 ft 319 kts 13°
2026-05-05 14:58 38.05808 -85.59309 31768 ft 244 kts 351°
2026-05-05 14:59 38.07315 -85.59111 31771 ft 203 kts 336°
2026-05-05 14:59 38.08164 -85.59221 31132 ft 205 kts 330°